Regional Weather Roundup
Issued by NWS

Home | Current Version | Previous Version | Text Only | Print | Product List | Glossary Off
Versions: 1 2 3 4 5 6 7 8 9 10 11 12 13 14 15 16 17 18 19 20 21 22 23 24 25 26 27 28 29 30 31 32 33 34 35 36 37 38 39 40 41 42 43 44 45 46 47 48 49 50

087
ASUS44 KJAN 011910
RWRMS

MISSISSIPPI HOURLY WEATHER ROUNDUP
NATIONAL WEATHER SERVICE JACKSON MS
200 PM CDT WED OCT 01 2014

NOTE: "FAIR: INDICATES FEW OR NO CLOUDS BELOW 12,000 FEET WITH NO
SIGNIFICANT WEATHER AND/OR OBSTRUCTIONS TO VISIBILITY.

MSZ001>002-007>008-010>013-018>021-025>028-034>036-012000-
NORTHWEST MISSISSIPPI

CITY           SKY/WX    TMP DP  RH WIND       PRES   REMARKS
CLARKSDALE     FAIR      88  66  48 S12       29.89F HX  90
CLEVELAND      FAIR      91  65  42 S13G21    29.87F HX  92
GREENWOOD      MOSUNNY   87  65  47 S9        29.90F
GREENVILLE     MOSUNNY   91  64  40 S9        29.87F HX  92
GRENADA        FAIR      88  63  42 S8        29.91F
OLIVE BRANCH   MOSUNNY   86  64  48 S8        29.91F
OXFORD         PTSUNNY   82  63  51 S9        29.94F
TUNICA         PTCLDY    86  63  45 S12G18    29.89F
$$

MSZ003>006-009-014>017-022>024-029>033-037>039-012000-
NORTHEAST MISSISSIPPI

CITY           SKY/WX    TMP DP  RH WIND       PRES   REMARKS
COLUMBUS AFB   MOSUNNY   85  58  39 VRB5      29.93F
CORINTH        MOCLDY    88  57  35 S10       29.93F
GOLDN TRIANGLE MOSUNNY   86  59  39 E9        29.92F
STARKVILLE     FAIR      86  61  42 CALM      29.92F
TUPELO         MOSUNNY   86  59  39 S7        29.93F
$$

MSZ040-058-012000-
CENTRAL MISSISSIPPI

CITY           SKY/WX    TMP DP  RH WIND       PRES   REMARKS
JACKSON INTL   MOSUNNY   87  65  47 SE10      29.91F
JACKSON HAWKNS SUNNY     88  65  46 SE12      29.91F HX  90
MERIDIAN KEY   MOSUNNY   86  60  41 SW6       29.93F
MERIDIAN NAS   PTSUNNY   88  59  37 VRB6      29.94F
RAYMOND        FAIR      90  84  84 S6        29.90F HX 115
VICKSBURG      MOSUNNY   89  67  47 SE8       29.88F HX  92
$$

MSZ059>079-012000-
SOUTH MISSISSIPPI

CITY           SKY/WX    TMP DP  RH WIND       PRES   REMARKS
BROOKHAVEN     FAIR      88  70  55 S10       29.93F HX  92
COLUMBIA       FAIR      86  70  58 SE8       29.90F HX  90
HATTIESBURG    MOSUNNY   86  66  51 S7        29.92F
MCCOMB         MOSUNNY   83  70  64 S8G16     29.91F
NATCHEZ        MOSUNNY   84  73  70 E8        29.90F HX  91
PINE BELT      MOSUNNY   82  64  54 SE6       29.94F
$$

MSZ080>082-012000-
COASTAL MISSISSIPPI

CITY           SKY/WX    TMP DP  RH WIND       PRES   REMARKS
BAY ST LOUIS   PTSUNNY   81  70  69 SE10      29.92F
BILOXI         PTSUNNY   82  72  72 SE8       29.92F
PASCAGOULA     CLOUDY    82  70  66 S9        29.93F
GULFPORT       CLOUDY    80  72  76 SE13      29.91F
$$



USA.gov is the U.S. government's official web portal to all federal, state and local government web resources and services.